[[{"header":{"parameterUnit":"m.s-1","parameterCategory":1,"la1":30.2991,"la2":30.254,"lo1":-89.0895,"lo2":-89.0444,"dy":0.0017,"dx":0.0017,"nx":28,"ny":28,"refTime":"2024-05-19T21:00:00:Z","depth":0,"parameterNumber":2,"parameterNumberName":"U-component_of_WINDS"},"data":[0,0,0,0,0,0,0,0,0,0,0,0,0,0,0,0,0,0,0,0,0,0,0,0,0,0,0,0,0,0,0,0,0,0,0,0,0,0,0,0,0,0,0,0,0,0,0,0,0,0,0,0,0,0,0,0,0,0,-0.1191,-0.1189,0,-0.1079,-0.1078,-0.1076,-0.1022,-0.1022,-0.1022,-0.1023,-0.0906,-0.0903,-0.09,0,0,0,0,0,0,0,0,0,0,0,0,0,-0.1357,-0.1355,-0.1191,-0.1189,-0.1188,-0.1079,-0.1078,-0.1076,-0.1022,-0.1022,-0.1022,-0.1023,-0.0907,-0.0903,-0.09,0,0,0,0,0,0,0,0,0,0,0,0,0,-0.1269,-0.1354,-0.1191,-0.1148,-0.1143,-0.1079,-0.1077,-0.1076,-0.1022,-0.1022,-0.1022,-0.1023,-0.0908,-0.0904,-0.0899,-0.0869,0,0,-0.0885,-0.0883,0,0,0,0,0,0,0,0,-0.1274,-0.1263,-0.1156,-0.1151,-0.1145,-0.1065,-0.1094,-0.1006,-0.1022,-0.1068,-0.1023,-0.1023,-0.0959,-0.095,-0.0929,-0.0864,-0.0859,-0.0884,-0.0882,-0.088,-0.0878,0,0,0,0,0,0,0,-0.1281,-0.1268,-0.1146,-0.1154,-0.1148,-0.1134,-0.1122,-0.1077,-0.1014,-0.1064,-0.106,-0.1048,-0.0956,-0.0933,-0.0926,-0.0857,-0.0885,-0.088,-0.0877,-0.0876,-0.0762,-0.0762,0,0,0,0,0,0,-0.1294,-0.1273,-0.115,-0.1143,-0.1211,-0.1131,-0.1117,-0.109,-0.1015,-0.1003,-0.1048,-0.1046,-0.0941,-0.0931,-0.0921,-0.0881,-0.088,-0.0875,-0.0872,-0.0763,-0.0762,-0.0762,0,0,0,0,0,0,-0.1298,-0.1283,-0.1154,-0.1207,-0.119,-0.1128,-0.1099,-0.1088,-0.1066,-0.1002,-0.0991,-0.1036,-0.0941,-0.0928,-0.0883,-0.0877,-0.0873,-0.0869,-0.0763,-0.0763,-0.0762,-0.0802,0,0,0,0,0,0,-0.1303,-0.1285,-0.1273,-0.1207,-0.1187,-0.1118,-0.1098,-0.1086,-0.1058,-0.1054,-0.0989,-0.0978,-0.094,-0.089,-0.0878,-0.087,-0.0865,-0.0763,-0.0763,-0.0762,-0.0801,-0.0803,-0.0805,0,0,0,0,0,-0.1309,-0.1288,-0.1273,-0.1258,-0.1171,-0.1118,-0.1106,-0.1064,-0.1058,-0.1045,-0.1005,-0.098,-0.088,-0.0886,-0.0872,-0.0863,-0.0763,-0.0763,-0.0762,-0.08,-0.0802,-0.0805,0,0,0,0,0,0,-0.1353,-0.1278,-0.1261,-0.1218,-0.1175,-0.1109,-0.1092,-0.1068,-0.1025,-0.1023,-0.0972,-0.0958,-0.0917,-0.0885,-0.0894,-0.083,-0.0819,-0.0816,-0.0852,-0.0854,-0.0856,-0.0865,-0.0861,0,0,0,0,0,-0.1359,-0.1322,-0.1258,-0.1227,-0.1206,-0.1153,-0.1128,-0.11,-0.1053,-0.1034,-0.099,-0.0945,-0.0904,-0.0877,-0.0835,-0.0796,-0.0781,-0.0783,-0.0785,-0.0787,-0.0784,-0.0762,-0.0762,-0.0761,-0.0761,-0.0761,0,0,-0.1368,-0.1323,-0.1303,-0.1235,-0.1198,-0.1162,-0.1138,-0.11,-0.1073,-0.1028,-0.0983,-0.095,-0.0896,-0.0854,-0.0833,-0.0826,-0.0782,-0.0786,-0.0788,-0.0785,-0.0762,-0.0762,-0.0762,-0.0761,-0.0761,-0.0761,0,0,-0.1367,-0.1329,-0.1299,-0.1263,-0.1209,-0.1173,-0.1167,-0.1104,-0.1081,-0.1035,-0.1001,-0.0968,-0.0897,-0.0861,-0.0833,-0.082,-0.0796,-0.0808,-0.0818,-0.0797,-0.0797,-0.0797,-0.0793,-0.0792,-0.0806,-0.0806,-0.0806,0,-0.1386,-0.133,-0.1287,-0.1251,-0.1222,-0.1182,-0.1151,-0.1118,-0.1052,-0.1034,-0.1027,-0.0938,-0.0899,-0.0848,-0.0846,-0.0824,-0.0815,-0.0815,-0.0801,-0.08,-0.0799,-0.0795,-0.0793,-0.0808,-0.0808,-0.0808,-0.0807,0,-0.1356,-0.1318,-0.1301,-0.1239,-0.1208,-0.1176,-0.1127,-0.1101,-0.1076,-0.1042,-0.0996,-0.0948,-0.0897,-0.0883,-0.0857,-0.0829,-0.0826,-0.0811,-0.0799,-0.0802,-0.0797,-0.0795,-0.0811,-0.081,-0.0809,-0.0809,0,0,-0.1379,-0.1295,-0.129,-0.1262,-0.1199,-0.1168,-0.1134,-0.1085,-0.1064,-0.102,-0.099,-0.0932,-0.0918,-0.0887,-0.0857,-0.0838,-0.0832,-0.0825,-0.0823,-0.0828,-0.0799,-0.081,-0.0809,-0.0816,-0.0815,-0.0815,-0.0803,0,-0.137,-0.1306,-0.1267,-0.122,-0.1184,-0.1146,-0.1116,-0.1075,-0.1042,-0.1007,-0.0971,-0.0931,-0.0915,-0.0896,-0.0877,-0.0837,-0.0825,-0.0837,-0.0787,-0.0786,-0.0802,-0.0806,-0.0818,-0.0809,-0.0801,-0.08,-0.08,0,-0.1349,-0.1308,-0.1258,-0.12,-0.1184,-0.1158,-0.1109,-0.1077,-0.1029,-0.1007,-0.0973,-0.0943,-0.0905,-0.0897,-0.0845,-0.0854,-0.0831,-0.0809,-0.0808,-0.0801,-0.0793,-0.08,-0.0805,-0.0804,-0.0796,-0.0797,-0.0797,0,-0.1372,-0.1303,-0.1264,-0.1241,-0.1173,-0.1156,-0.1127,-0.1079,-0.1052,-0.101,-0.0992,-0.0947,-0.0921,-0.0886,-0.0845,-0.0843,-0.0797,-0.0785,-0.0777,-0.0778,-0.0768,-0.077,-0.0771,-0.0755,-0.0755,-0.0755,-0.0755,0,-0.1365,-0.1335,-0.1273,-0.1249,-0.1216,-0.1171,-0.1139,-0.1106,-0.1065,-0.1034,-0.0998,-0.097,-0.0917,-0.0882,-0.085,-0.0812,-0.08,-0.0781,-0.0773,-0.0784,-0.0787,-0.0768,-0.0768,-0.0754,-0.0754,-0.0754,-0.0754,0,-0.1383,-0.134,-0.1296,-0.1235,-0.122,-0.1198,-0.1146,-0.1121,-0.1088,-0.1049,-0.1038,-0.0985,-0.0942,-0.0898,-0.084,-0.0818,-0.0781,-0.0769,-0.0797,-0.0793,-0.0787,-0.0789,-0.0776,-0.0772,-0.076,-0.076,-0.076,0,-0.1381,-0.1358,-0.1296,-0.1273,-0.1245,-0.1208,-0.1181,-0.1137,-0.111,-0.1055,-0.1037,-0.0993,-0.0954,-0.0888,-0.0844,-0.08,-0.0787,-0.0786,-0.078,-0.0793,-0.0787,-0.0789,-0.0787,-0.0788,-0.0788,-0.0788,-0.0788,0,-0.1383,-0.1363,-0.1326,-0.1281,-0.125,-0.1212,-0.1174,-0.1157,-0.1105,-0.1077,-0.1034,-0.1004,-0.0946,-0.0902,-0.0853,-0.0822,-0.0797,-0.0791,-0.0787,-0.0798,-0.0815,-0.0806,-0.0803,-0.0791,-0.0791,-0.0791,-0.0791,-0.079,-0.1391,-0.1369,-0.1322,-0.1282,-0.1248,-0.1213,-0.1188,-0.1151,-0.1115,-0.1064,-0.1041,-0.0998,-0.0951,-0.0883,-0.0854,-0.0819,-0.0812,-0.0805,-0.0804,-0.0803,-0.0806,-0.0822,-0.081,-0.081,-0.081,-0.081,-0.0809,0,-0.1391,-0.1359,-0.1322,-0.127,-0.1239,-0.1219,-0.1175,-0.115,-0.1113,-0.1072,-0.1036,-0.0987,-0.0945,-0.0898,-0.0853,-0.0834,-0.0822,-0.0824,-0.0825,-0.0818,-0.0815,-0.0823,-0.0835,-0.0835,-0.0835,-0.0835,-0.0835,-0.0835,-0.1387,-0.1349,-0.1324,-0.1269,-0.1238,-0.1196,-0.1173,-0.114,-0.1108,-0.1055,-0.102,-0.0991,-0.0948,-0.09,-0.086,-0.0848,-0.0833,-0.0838,-0.0823,-0.082,-0.0818,-0.0816,-0.0824,-0.0836,-0.0836,-0.0828,-0.0828,-0.0828]},{"header":{"parameterUnit":"m.s-1","parameterCategory":1,"la1":30.2991,"la2":30.254,"lo1":-89.0895,"lo2":-89.0444,"dy":0.0017,"dx":0.0017,"nx":28,"ny":28,"refTime":"2024-05-19T21:00:00:Z","depth":0,"parameterNumber":3,"parameterNumberName":"V-component_of_WINDS"},"data":[0,0,0,0,0,0,0,0,0,0,0,0,0,0,0,0,0,0,0,0,0,0,0,0,0,0,0,0,0,0,0,0,0,0,0,0,0,0,0,0,0,0,0,0,0,0,0,0,0,0,0,0,0,0,0,0,0,0,3.3509,3.3509,0,3.3458,3.3458,3.3457,3.3398,3.3397,3.3396,3.3395,3.3341,3.334,3.334,0,0,0,0,0,0,0,0,0,0,0,0,0,3.3554,3.3554,3.3509,3.3509,3.3508,3.3458,3.3458,3.3457,3.3398,3.3397,3.3396,3.3395,3.3341,3.334,3.334,0,0,0,0,0,0,0,0,0,0,0,0,0,3.3522,3.3554,3.3509,3.3473,3.3469,3.3458,3.3458,3.3457,3.3398,3.3397,3.3395,3.3394,3.3341,3.3341,3.334,3.3361,0,0,3.3337,3.3336,0,0,0,0,0,0,0,0,3.3524,3.3521,3.3479,3.3475,3.3471,3.3433,3.3454,3.3424,3.3398,3.3425,3.3395,3.3394,3.3373,3.3369,3.3362,3.3358,3.3356,3.3337,3.3336,3.3336,3.3336,0,0,0,0,0,0,0,3.3526,3.3522,3.3489,3.3478,3.3473,3.3458,3.3452,3.3448,3.3407,3.3422,3.3418,3.3413,3.337,3.3363,3.3361,3.3355,3.3337,3.3336,3.3335,3.3335,3.3366,3.3367,0,0,0,0,0,0,3.3534,3.3525,3.3491,3.3487,3.3495,3.3459,3.3452,3.3446,3.3407,3.3399,3.3414,3.341,3.3366,3.3362,3.3358,3.338,3.3336,3.3335,3.3334,3.3364,3.3366,3.3367,0,0,0,0,0,0,3.3536,3.3532,3.3493,3.3505,3.3499,3.3459,3.3454,3.3446,3.3439,3.34,3.3393,3.3415,3.3364,3.336,3.3361,3.3378,3.3335,3.3334,3.3363,3.3365,3.3367,3.3425,0,0,0,0,0,0,3.3537,3.3533,3.3541,3.3506,3.3498,3.3496,3.3455,3.3446,3.3438,3.3433,3.3399,3.3392,3.3363,3.3362,3.336,3.3376,3.3333,3.3361,3.3364,3.3366,3.3421,3.3429,3.3435,0,0,0,0,0,3.3539,3.3559,3.3541,3.3538,3.3507,3.3498,3.3493,3.346,3.344,3.3447,3.3422,3.3393,3.3377,3.3363,3.336,3.3376,3.336,3.3363,3.3366,3.3418,3.3427,3.3435,0,0,0,0,0,0,3.3596,3.3553,3.3534,3.3543,3.3524,3.3488,3.3496,3.3471,3.3457,3.3452,3.3411,3.3404,3.341,3.3393,3.3378,3.3394,3.3364,3.3366,3.3405,3.3413,3.342,3.3424,3.3332,0,0,0,0,0,3.361,3.3606,3.3568,3.358,3.3572,3.3536,3.353,3.3506,3.3485,3.3477,3.3452,3.3432,3.3422,3.3417,3.3406,3.3419,3.341,3.3428,3.3435,3.3441,3.3443,3.3449,3.3456,3.3377,3.3377,3.3377,0,0,3.3638,3.3614,3.3614,3.3591,3.3574,3.357,3.3529,3.3527,3.3524,3.3476,3.3476,3.3457,3.3432,3.3439,3.3441,3.3425,3.3463,3.3445,3.345,3.3449,3.3453,3.346,3.3467,3.338,3.3379,3.3379,0,0,3.3687,3.3669,3.3677,3.3661,3.3636,3.3612,3.3614,3.3581,3.3567,3.3566,3.353,3.3525,3.3509,3.3493,3.3483,3.3527,3.35,3.3525,3.3561,3.3567,3.3573,3.3578,3.3594,3.36,3.3527,3.3528,3.3528,0,3.3725,3.3719,3.3684,3.3684,3.3675,3.3632,3.364,3.3625,3.3598,3.3592,3.3575,3.3555,3.3535,3.3538,3.3549,3.3542,3.3543,3.3528,3.3575,3.358,3.3584,3.3599,3.3605,3.3531,3.353,3.353,3.353,0,3.3767,3.3763,3.3772,3.3748,3.3739,3.3743,3.3708,3.3704,3.3681,3.3659,3.3659,3.3634,3.3617,3.3616,3.3593,3.3616,3.3606,3.3583,3.3552,3.3596,3.3609,3.3614,3.3535,3.3534,3.3533,3.3532,0,0,3.385,3.3807,3.3811,3.3799,3.3769,3.3765,3.3767,3.3751,3.3748,3.3731,3.3731,3.3719,3.3697,3.3686,3.366,3.3666,3.3703,3.3641,3.364,3.3654,3.3726,3.3745,3.3752,3.3685,3.3685,3.3686,3.3729,0,3.3894,3.3896,3.3864,3.3874,3.387,3.383,3.3831,3.3813,3.3792,3.3785,3.3762,3.3754,3.3726,3.3719,3.3722,3.3698,3.3717,3.3694,3.3684,3.3684,3.3692,3.3759,3.3778,3.3819,3.3733,3.3734,3.3735,0,3.3946,3.3932,3.3942,3.3911,3.3908,3.3911,3.3894,3.3888,3.3866,3.3851,3.3838,3.381,3.3809,3.378,3.3779,3.3764,3.3758,3.3745,3.3746,3.3744,3.3712,3.3758,3.3831,3.3838,3.3743,3.3742,3.3741,0,3.4006,3.399,3.3994,3.3985,3.3949,3.3952,3.3937,3.3914,3.3907,3.3892,3.3887,3.3872,3.3864,3.3853,3.3821,3.3803,3.3823,3.3791,3.381,3.3811,3.3816,3.3817,3.389,3.3813,3.3812,3.3812,3.3812,0,3.4058,3.4066,3.402,3.4023,3.403,3.3994,3.4002,3.3983,3.3963,3.3961,3.3924,3.3923,3.3881,3.3875,3.385,3.3853,3.3849,3.3837,3.383,3.384,3.3842,3.3836,3.3832,3.3814,3.3814,3.3813,3.3813,0,3.4127,3.4096,3.4098,3.4065,3.4056,3.4063,3.4034,3.4035,3.4013,3.401,3.4008,3.3972,3.3963,3.393,3.3913,3.3896,3.3907,3.3893,3.3914,3.391,3.3931,3.393,3.4003,3.4011,3.3929,3.393,3.393,0,3.4162,3.4167,3.4135,3.4131,3.4118,3.4112,3.4105,3.407,3.4063,3.4039,3.4043,3.4031,3.402,3.4007,3.3979,3.3966,3.3952,3.3979,3.395,3.396,3.3953,3.3953,3.3954,3.3985,3.3986,3.3987,3.3988,0,3.4228,3.4213,3.4205,3.4191,3.4183,3.4171,3.4156,3.4155,3.4115,3.411,3.41,3.4092,3.4075,3.4063,3.4046,3.4029,3.4002,3.3997,3.4001,3.4011,3.4024,3.4018,3.3932,3.3996,3.3995,3.3994,3.3994,3.3993,3.4281,3.4284,3.4262,3.4254,3.4239,3.4226,3.4225,3.4203,3.4195,3.4179,3.4158,3.4151,3.4129,3.4102,3.4089,3.4083,3.4068,3.4073,3.4074,3.4076,3.4082,3.4024,3.4079,3.4079,3.4079,3.4079,3.4078,0,3.4346,3.433,3.4323,3.4304,3.4297,3.4272,3.4255,3.4251,3.4246,3.4228,3.4218,3.4207,3.4196,3.4168,3.4154,3.4155,3.4142,3.4152,3.4152,3.4149,3.4096,3.4094,3.4163,3.4163,3.4163,3.4163,3.4163,3.4163,3.4379,3.4383,3.4366,3.4362,3.4345,3.4339,3.4331,3.4319,3.4305,3.4295,3.4286,3.4268,3.4246,3.423,3.4219,3.4211,3.4207,3.4222,3.421,3.4161,3.4153,3.4145,3.4143,3.4222,3.4222,3.4264,3.4265,3.4265]}]]